Change the Weather History Date:

Sunday, January 20, 2013

  Actual Average (KAPA) Record (KAPA)
Temperature  
Mean Temperature 30 °F -  
Max Temperature 42 °F 43 °F 89 °F (1998)
Min Temperature 19 °F 20 °F 10 °F (2011)
Degree Days  
Heating Degree Days 34    
Moisture  
Dew Point 6 °F    
Average Humidity 38    
Maximum Humidity 80    
Minimum Humidity 18    
Precipitation  
Precipitation 0.00 in - - ()
Sea Level Pressure  
Sea Level Pressure 30.18 in    
Wind  
Wind Speed 9 mph (SW)    
Max Wind Speed 16 mph    
Max Gust Speed 22 mph    
Visibility 10 miles    
Events      
Averages and records for this station are not official NWS values.
T = Trace of Precipitation, MM = Missing Value Source: NWS Daily Summary

Daily Weather History Graph

Daily Weather History Graph

Search for Another Location

Airport or City:

Trip Planner

Search our weather history database for the weather conditions in past years. The results will help you decide how hot, cold, wet, or windy it might be!

Date:

Astronomy

Jan. 20, 2013 Rise Set
Actual Time 7:14 AM MST 5:05 PM MST
Civil Twilight 6:45 AM MST 5:34 PM MST
Nautical Twilight 6:12 AM MST 6:07 PM MST
Astronomical Twilight 5:40 AM MST 6:39 PM MST
Moon 12:08 PM MST (1/20) 1:48 AM MST (1/20)
Length of Visible Light 10h 49m
Length of Day
9h 51m
Waxing Gibbous, 67% of the Moon is Illuminated
Jan 20
Waxing Gibbous
Jan 26
Full
Feb 3
Last Quarter
Feb 10
New
Feb 17
First Quarter

Hourly Weather History & Observations

Time (MST) Temp. Windchill Dew Point Humidity Pressure Visibility Wind Dir Wind Speed Gust Speed Precip Events Conditions
12:14 AM 32.0 °F 22.5 °F 5.0 °F 32% 30.15 in 10.0 mi SW 12.7 mph - N/A   Clear
12:34 AM 32.0 °F 22.5 °F 3.2 °F 30% 30.15 in 10.0 mi SW 12.7 mph - N/A   Clear
12:55 AM 33.8 °F 26.4 °F 1.4 °F 25% 30.15 in 10.0 mi SW 9.2 mph - N/A   Clear
1:15 AM 35.6 °F 28.0 °F -0.4 °F 22% 30.13 in 10.0 mi SW 10.4 mph - N/A   Clear
1:35 AM 32.0 °F 23.6 °F 1.4 °F 27% 30.13 in 10.0 mi WSW 10.4 mph - N/A   Clear
1:54 AM 32.0 °F 24.2 °F -0.4 °F 25% 30.14 in 10.0 mi WSW 9.2 mph - N/A   Clear
2:15 AM 32.0 °F 26.4 °F -4.0 °F 21% 30.13 in 10.0 mi SW 5.8 mph - N/A   Clear
2:35 AM 26.6 °F 22.6 °F 1.4 °F 34% 30.14 in 10.0 mi West 3.5 mph - N/A   Clear
2:54 AM 28.4 °F 24.6 °F -0.4 °F 29% 30.14 in 10.0 mi WNW 3.5 mph - N/A   Clear
3:15 AM 30.2 °F 24.3 °F -2.2 °F 25% 30.13 in 10.0 mi NW 5.8 mph - N/A   Clear
3:35 AM 28.4 °F 21.2 °F 1.4 °F 31% 30.13 in 10.0 mi NNW 6.9 mph - N/A   Clear
3:55 AM 26.6 °F - 1.4 °F 34% 30.13 in 10.0 mi Calm Calm - N/A   Clear
4:15 AM 24.8 °F 16.9 °F 3.2 °F 40% 30.13 in 10.0 mi West 6.9 mph - N/A   Clear
4:35 AM 23.0 °F 13.1 °F 3.2 °F 43% 30.12 in 10.0 mi West 9.2 mph - N/A   Clear
4:55 AM 23.0 °F 13.9 °F 3.2 °F 43% 30.12 in 10.0 mi West 8.1 mph - N/A   Clear
5:15 AM 19.4 °F - 3.2 °F 49% 30.13 in 10.0 mi Calm Calm - N/A   Clear
5:35 AM 23.0 °F 15.8 °F 1.4 °F 39% 30.13 in 10.0 mi SW 5.8 mph - N/A   Clear
5:55 AM 23.0 °F - 1.4 °F 39% 30.13 in 10.0 mi Calm Calm - N/A   Clear
6:15 AM 21.2 °F 16.4 °F 1.4 °F 42% 30.13 in 10.0 mi West 3.5 mph - N/A   Clear
6:35 AM 30.2 °F 24.3 °F -2.2 °F 25% 30.15 in 10.0 mi West 5.8 mph - N/A   Clear
6:55 AM 26.6 °F 19.1 °F -0.4 °F 31% 30.15 in 10.0 mi WNW 6.9 mph - N/A   Clear
7:15 AM 26.6 °F 16.8 °F -0.4 °F 31% 30.16 in 10.0 mi NW 10.4 mph - N/A   Clear
7:35 AM 30.2 °F 21.3 °F -0.4 °F 27% 30.17 in 10.0 mi WNW 10.4 mph - N/A   Clear
7:55 AM 30.2 °F 22.6 °F -0.4 °F 27% 30.18 in 7.0 mi WNW 8.1 mph - N/A   Clear
8:15 AM 32.0 °F 23.6 °F 1.4 °F 27% 30.20 in 10.0 mi NW 10.4 mph - N/A   Clear
8:34 AM 33.8 °F 25.8 °F 3.2 °F 28% 30.21 in 10.0 mi NW 10.4 mph - N/A   Clear
8:55 AM 35.6 °F 28.6 °F 3.2 °F 26% 30.22 in 10.0 mi NW 9.2 mph - N/A   Clear
9:14 AM 37.4 °F 30.3 °F 1.4 °F 22% 30.23 in 10.0 mi NW 10.4 mph - N/A   Clear
9:35 AM 39.2 °F 32.5 °F 3.2 °F 22% 30.24 in 10.0 mi NW 10.4 mph - N/A   Clear
9:55 AM 41.0 °F 35.8 °F 3.2 °F 21% 30.24 in 10.0 mi North 8.1 mph - N/A   Clear
10:15 AM 41.0 °F 34.3 °F 3.2 °F 21% 30.25 in 10.0 mi NNE 11.5 mph - N/A   Clear
10:35 AM 41.0 °F 34.7 °F 3.2 °F 21% 30.24 in 10.0 mi North 10.4 mph 17.3 mph N/A   Clear
10:55 AM 42.8 °F 37.5 °F 3.2 °F 19% 30.24 in 10.0 mi NE 9.2 mph - N/A   Clear
11:15 AM 42.8 °F 37.5 °F 1.4 °F 18% 30.23 in 10.0 mi NNE 9.2 mph - N/A   Clear
11:34 AM 42.8 °F 36.6 °F 1.4 °F 18% 30.22 in 10.0 mi NNE 11.5 mph 16.1 mph N/A   Clear
11:54 AM 42.8 °F 36.6 °F 3.2 °F 19% 30.21 in 10.0 mi NE 11.5 mph 16.1 mph N/A   Clear
12:14 PM 39.2 °F 30.5 °F 6.8 °F 26% 30.20 in 10.0 mi ENE 16.1 mph - N/A   Clear
12:35 PM 39.2 °F 30.5 °F 6.8 °F 26% 30.19 in 10.0 mi NNE 16.1 mph 21.9 mph N/A   Clear
12:55 PM 37.4 °F 28.2 °F 6.8 °F 28% 30.18 in 10.0 mi NE 16.1 mph 19.6 mph N/A   Clear
1:15 PM 37.4 °F 29.3 °F 8.6 °F 30% 30.17 in 10.0 mi NE 12.7 mph 20.7 mph N/A   Clear
1:35 PM 37.4 °F 29.8 °F 8.6 °F 30% 30.17 in 10.0 mi NE 11.5 mph 17.3 mph N/A   Clear
1:55 PM 37.4 °F 29.8 °F 8.6 °F 30% 30.17 in 10.0 mi ENE 11.5 mph - N/A   Clear
2:15 PM 37.4 °F 30.8 °F 8.6 °F 30% 30.18 in 10.0 mi NNE 9.2 mph - N/A   Clear
2:34 PM 37.4 °F 32.8 °F 10.4 °F 33% 30.18 in 10.0 mi East 5.8 mph - N/A   Clear
2:54 PM 37.4 °F 32.8 °F 8.6 °F 30% 30.17 in 10.0 mi NE 5.8 mph - N/A   Clear
3:15 PM 37.4 °F 32.8 °F 8.6 °F 30% 30.17 in 10.0 mi ENE 5.8 mph - N/A   Clear
3:35 PM 35.6 °F 32.8 °F 8.6 °F 33% 30.17 in 10.0 mi ENE 3.5 mph - N/A   Clear
3:55 PM 33.8 °F 30.8 °F 10.4 °F 38% 30.17 in 10.0 mi East 3.5 mph - N/A   Clear
4:15 PM 35.6 °F 30.7 °F 10.4 °F 35% 30.17 in 10.0 mi East 5.8 mph - N/A   Clear
4:34 PM 33.8 °F 27.0 °F 10.4 °F 38% 30.16 in 10.0 mi ESE 8.1 mph - N/A   Clear
4:54 PM 32.0 °F 25.6 °F 10.4 °F 41% 30.17 in 10.0 mi SE 6.9 mph - N/A   Clear
5:15 PM 28.4 °F 21.2 °F 10.4 °F 47% 30.18 in 10.0 mi SE 6.9 mph - N/A   Clear
5:35 PM 26.6 °F 19.1 °F 10.4 °F 51% 30.19 in 10.0 mi SE 6.9 mph - N/A   Clear
5:55 PM 24.8 °F 16.1 °F 10.4 °F 54% 30.19 in 10.0 mi SE 8.1 mph - N/A   Clear
6:14 PM 28.4 °F 19.7 °F 10.4 °F 47% 30.20 in 10.0 mi SSE 9.2 mph - N/A   Clear
6:35 PM 26.6 °F 16.8 °F 10.4 °F 51% 30.20 in 10.0 mi SSE 10.4 mph - N/A   Clear
6:54 PM 23.0 °F 11.7 °F 10.4 °F 59% 30.19 in 10.0 mi South 11.5 mph - N/A   Clear
7:15 PM 23.0 °F 11.7 °F 10.4 °F 59% 30.20 in 10.0 mi SSE 11.5 mph - N/A   Clear
7:35 PM 26.6 °F 17.5 °F 10.4 °F 51% 30.20 in 10.0 mi South 9.2 mph - N/A   Clear
7:55 PM 23.0 °F 13.1 °F 10.4 °F 59% 30.20 in 10.0 mi South 9.2 mph - N/A   Clear
8:15 PM 21.2 °F 10.1 °F 10.4 °F 63% 30.19 in 10.0 mi South 10.4 mph - N/A   Clear
8:35 PM 23.0 °F 11.7 °F 12.2 °F 63% 30.19 in 10.0 mi South 11.5 mph - N/A   Clear
8:54 PM 23.0 °F 10.6 °F 10.4 °F 59% 30.19 in 10.0 mi SSW 13.8 mph - N/A   Clear
9:15 PM 26.6 °F 15.7 °F 12.2 °F 55% 30.18 in 10.0 mi South 12.7 mph - N/A   Clear
9:35 PM 24.8 °F 12.9 °F 12.2 °F 59% 30.18 in 10.0 mi South 13.8 mph - N/A   Clear
9:55 PM 23.0 °F 10.6 °F 10.4 °F 59% 30.18 in 10.0 mi South 13.8 mph - N/A   Clear
10:14 PM 24.8 °F 11.9 °F 12.2 °F 59% 30.18 in 10.0 mi South 16.1 mph 21.9 mph N/A   Clear
10:35 PM 23.0 °F 11.1 °F 14.0 °F 68% 30.19 in 10.0 mi South 12.7 mph - N/A   Clear
10:55 PM 23.0 °F 11.1 °F 14.0 °F 68% 30.20 in 10.0 mi SSW 12.7 mph - N/A   Clear
11:15 PM 21.2 °F 8.9 °F 14.0 °F 74% 30.19 in 10.0 mi SSW 12.7 mph - N/A   Clear
11:35 PM 21.2 °F 8.9 °F 14.0 °F 74% 30.19 in 10.0 mi SSW 12.7 mph - N/A   Clear
11:55 PM 21.2 °F 8.9 °F 15.8 °F 80% 30.17 in 10.0 mi SSW 12.7 mph - N/A   Clear